GEFSGL_500_meanwind_000.txt.gz
Wind_Speed
44 42 39 36 33 39 42 39 38 41 47 50 48 49 52 55 56 57 57 55 55 57 57 57 57 58 59 61 62 63 63 62 61 56 48 42 41 45 45 46 46 45 45
36 36 40 40 41 44 41 37 39 44 45 45 47 50 53 55 56 56 55 54 55 57 57 57 58 59 59 60 60 60 59 56 52 45 41 37 38 39 39 41 40 40 39
44 43 43 42 42 41 40 40 43 44 45 47 49 50 53 54 53 53 53 53 54 54 56 58 59 60 58 55 52 48 46 45 43 39 35 35 36 36 37 37 35 32 28
49 46 43 40 40 40 42 44 44 45 47 48 49 49 50 51 52 52 52 53 53 55 57 58 57 54 48 43 39 37 35 34 32 30 28 29 30 31 31 28 22 18 16
49 44 42 40 39 41 42 43 45 45 45 46 47 48 50 51 51 51 52 54 55 56 54 52 49 44 41 41 38 33 28 25 22 20 21 22 25 27 23 17 13 11 10
47 43 43 43 42 42 42 43 43 44 44 46 48 50 51 51 51 52 53 55 53 50 46 44 43 42 42 41 34 28 23 19 17 17 18 21 23 18 13 11 7 8 9
44 42 45 47 43 41 40 41 43 44 45 47 50 50 50 50 51 52 53 51 46 42 40 40 38 35 35 31 26 23 20 18 17 17 17 17 13 11 9 5 4 6 9
43 44 49 44 40 41 40 41 44 45 47 49 50 49 49 49 50 50 48 44 40 37 36 34 31 30 26 21 19 17 14 13 13 13 10 8 8 7 5 4 5 8 9
42 46 41 39 41 41 41 42 44 47 49 50 48 47 48 49 47 45 42 39 34 32 32 30 27 24 19 14 13 12 10 9 8 4 3 3 3 3 4 4 6 8 9
39 37 36 38 41 41 42 44 46 49 48 47 46 46 47 45 42 40 37 32 29 29 28 28 24 19 16 12 10 7 5 3 4 5 3 2 1 3 6 8 8 7 4
37 36 36 38 39 41 43 45 47 48 47 47 47 45 43 40 37 36 32 28 26 25 24 24 23 19 15 9 4 4 8 8 7 7 8 8 7 6 7 8 7 3 1
33 35 35 37 39 42 44 45 46 47 48 48 46 42 38 36 33 31 27 23 22 20 21 19 17 12 4 5 9 12 11 10 11 11 9 6 8 10 10 7 3 3 4
30 32 35 37 40 42 43 45 47 48 47 44 40 35 33 32 28 23 19 16 17 19 18 16 11 7 10 13 14 13 13 12 11 9 7 8 10 9 7 5 4 4 5
29 33 36 39 40 42 44 46 46 43 38 33 30 30 30 26 21 15 12 14 16 17 16 9 10 12 14 14 13 12 11 10 8 6 8 10 9 8 7 6 5 4 5
31 34 37 38 40 42 43 42 38 32 27 26 27 28 26 19 13 9 10 11 12 13 9 9 11 12 12 10 10 11 11 9 7 6 8 10 9 7 7 8 7 8 10
31 34 36 39 41 41 38 33 28 22 22 26 28 24 17 11 6 6 7 8 10 12 9 10 12 12 13 13 14 14 12 11 9 9 12 13 10 9 10 10 9 10 13
32 35 38 39 38 34 29 24 20 20 23 26 24 18 11 7 4 3 5 6 9 11 10 11 11 13 15 15 14 13 12 12 11 13 15 13 11 12 12 11 10 11 15
33 36 37 36 31 25 20 17 18 21 23 23 19 14 10 8 6 3 5 6 8 10 11 11 12 14 14 12 13 13 12 12 13 14 14 13 14 15 14 13 13 16 21
34 35 34 28 21 16 15 17 21 22 21 18 15 11 10 12 9 4 2 5 7 10 12 13 15 15 15 16 17 16 13 13 13 14 14 14 17 18 18 19 21 24 26
33 31 25 19 16 16 18 20 21 20 17 14 13 12 9 9 8 5 5 6 7 10 13 15 16 16 16 18 18 16 14 14 16 15 13 15 19 21 21 21 21 24 26
27 22 18 16 17 18 19 19 19 18 14 10 9 10 10 8 7 7 8 8 9 12 14 15 16 16 17 17 17 17 17 15 14 14 16 20 22 21 20 21 21 23 26
21 17 16 17 18 19 18 17 18 18 14 9 7 8 11 10 10 9 10 10 12 13 13 13 13 13 13 15 15 16 14 13 14 15 19 24 22 19 19 21 24 24 24
19 19 18 18 19 19 18 17 17 17 15 12 9 10 12 13 13 13 13 12 13 14 12 11 10 10 10 11 9 9 10 11 13 15 19 23 20 17 18 19 22 23 22
17 19 19 19 20 20 19 17 16 16 16 14 13 14 14 14 15 17 16 15 14 14 13 12 10 10 9 8 7 9 10 11 12 15 18 19 18 16 16 17 17 17 17
19 19 20 20 20 21 20 19 17 16 16 16 15 16 16 16 17 19 19 18 16 14 13 13 12 11 11 11 12 11 11 12 12 14 17 18 17 16 16 17 16 14 12
23 23 24 24 23 23 22 21 20 19 18 16 16 17 18 17 18 18 18 18 16 14 13 13 13 13 13 13 12 12 12 14 14 14 16 16 15 14 14 15 16 14 13

GEFSGL_500_meanwind_006.txt.gz
Wind_Speed
37 38 40 43 44 45 47 50 53 55 56 55 54 55 56 58 59 59 59 60 61 62 64 65 66 68 68 68 67 66 66 66 66 63 62 56 50 47 45 46 49 50 49
40 42 43 44 44 47 50 53 55 55 55 54 53 53 55 56 57 57 58 60 61 62 63 64 65 66 65 65 64 65 64 63 61 57 51 45 41 40 39 39 39 39 40
41 42 43 45 48 50 52 53 53 53 54 55 54 54 55 56 55 56 57 59 61 62 63 63 62 62 62 63 62 59 55 52 50 47 41 38 36 37 36 34 33 33 34
46 47 47 48 51 53 51 51 51 52 55 56 56 55 55 54 54 56 58 60 61 61 61 61 61 61 61 59 53 48 45 44 44 41 36 33 33 33 31 29 28 28 29
51 50 48 50 55 53 51 49 49 51 53 55 56 55 54 54 55 58 59 60 60 60 61 61 60 58 55 49 44 42 41 41 38 33 29 27 27 26 25 24 23 23 25
52 50 49 54 58 55 50 48 51 53 54 55 54 53 53 54 56 58 59 58 59 60 60 58 54 50 45 42 40 38 37 35 29 24 20 19 20 21 20 18 17 17 18
51 50 51 56 60 56 51 50 52 53 53 52 51 52 53 54 56 57 57 58 59 58 55 51 47 42 39 38 35 33 32 28 19 15 14 15 14 14 12 11 10 10 10
50 50 54 58 58 54 49 49 49 48 48 49 51 53 55 55 55 56 57 56 54 50 47 43 40 37 36 33 29 26 24 16 11 10 10 9 8 7 6 6 6 7 7
49 52 57 56 54 51 47 46 44 45 47 50 52 53 54 55 54 53 51 49 45 42 39 36 35 34 32 27 22 18 13 8 6 5 4 4 3 2 2 4 4 4 4
48 53 56 54 51 46 43 42 43 46 48 50 51 53 53 52 50 46 43 40 36 33 31 31 31 30 25 19 12 8 4 1 1 2 3 4 3 2 2 2 2 2 1
47 51 52 52 49 43 40 42 44 47 48 50 51 50 47 43 40 37 35 31 27 25 25 25 24 20 14 7 2 3 5 6 5 4 4 5 5 4 3 3 3 4 6
47 48 47 45 43 43 43 45 46 48 49 49 46 41 36 34 32 30 26 21 20 20 20 18 14 11 6 6 8 10 9 8 6 5 5 5 5 5 5 5 8 11 13
43 42 40 39 40 42 44 45 46 47 45 40 33 28 28 29 27 22 18 16 17 17 15 11 9 7 8 11 12 12 11 9 7 5 4 4 4 5 7 10 13 13 10
37 37 37 38 40 42 43 44 43 39 32 25 22 24 27 26 21 16 13 13 13 13 11 9 9 10 12 13 13 11 9 7 5 4 3 4 5 7 10 12 11 11 12
34 37 38 39 39 39 39 37 32 24 19 20 23 25 25 23 17 12 10 10 10 9 6 7 11 13 14 13 11 8 6 5 5 4 5 6 7 9 11 11 14 17 19
35 36 37 36 36 34 30 24 19 19 21 23 23 23 21 18 14 9 8 8 7 4 5 8 10 11 10 10 8 7 6 6 6 6 7 8 9 9 11 13 18 20 22
34 35 34 32 28 23 19 18 20 22 23 22 19 18 16 14 12 7 5 5 4 4 7 9 10 9 9 8 7 7 6 6 7 8 8 9 9 10 12 15 19 21 22
32 30 27 23 19 18 20 21 23 23 21 18 14 13 12 12 10 5 3 3 4 6 8 9 9 9 10 9 9 8 7 7 8 9 9 10 11 12 14 17 19 20 19
28 24 21 19 19 21 22 22 21 20 18 14 10 10 11 11 8 3 2 3 5 7 9 9 9 10 11 11 11 9 8 7 8 10 11 12 14 17 18 20 21 21 20
21 20 19 19 20 21 21 19 17 16 14 9 8 9 10 8 4 3 5 6 9 10 10 10 11 11 12 12 12 10 8 8 10 13 14 16 18 20 21 23 23 23 23
18 19 19 20 19 19 17 15 14 13 10 8 8 9 8 6 6 7 8 10 12 12 12 12 12 12 12 12 12 11 10 11 14 15 16 18 19 20 21 23 24 24 26
18 19 19 18 17 16 13 12 11 10 10 9 9 9 8 9 10 11 12 13 14 15 14 14 13 12 13 12 13 13 12 13 15 16 17 18 19 19 19 20 21 21 22
19 19 18 17 15 13 12 10 10 10 10 10 10 10 12 12 13 15 15 15 15 15 15 14 13 12 11 12 13 13 12 13 15 16 17 18 19 19 18 17 17 16 17
21 20 19 17 15 13 11 10 10 10 10 11 11 13 14 15 16 17 17 16 15 14 14 12 11 10 10 10 11 12 12 12 14 15 16 18 19 18 17 15 14 12 12
25 24 22 20 17 15 13 12 11 10 11 12 12 13 15 17 18 18 17 15 14 12 11 10 9 8 8 8 9 10 11 11 12 14 15 16 18 18 18 17 16 15 15
29 29 27 25 22 19 17 15 14 13 12 13 13 14 16 17 18 18 17 15 13 12 10 8 7 7 7 7 8 9 10 11 12 13 14 14 15 16 16 15 15 14 14

GEFSGL_500_meanwind_012.txt.gz
Wind_Speed
38 42 45 48 50 50 50 50 50 51 53 55 56 58 59 59 60 62 63 62 60 59 59 61 63 64 66 68 69 71 72 73 73 72 73 73 73 71 67 63 58 56 54
41 45 48 50 51 50 49 51 53 55 56 57 58 58 59 60 62 63 62 60 59 59 60 62 64 66 67 68 69 70 72 73 74 72 67 64 60 57 54 51 48 45 42
44 47 49 49 48 50 52 54 57 58 58 58 57 57 58 59 59 58 58 58 58 59 60 62 63 65 66 68 69 70 71 69 67 62 56 51 47 46 43 41 37 34 32
46 48 49 51 53 55 57 59 59 58 57 57 56 56 57 57 58 59 58 57 57 57 59 61 62 64 66 67 67 66 63 58 53 49 45 40 38 38 35 31 27 25 24
48 50 53 55 57 59 60 59 58 57 56 57 57 58 59 58 58 56 54 54 55 56 58 60 61 63 65 64 60 54 49 45 42 38 33 31 30 29 26 21 20 20 20
51 53 55 57 58 58 57 57 57 57 58 58 58 59 58 56 53 52 52 53 54 55 57 59 59 59 57 52 46 41 38 36 31 27 24 22 21 19 18 16 15 16 16
52 52 53 53 53 52 54 56 57 58 58 57 56 56 53 51 49 49 50 52 54 55 55 54 52 48 43 38 34 32 30 27 22 18 16 15 15 14 13 12 11 11 11
48 47 47 48 49 52 53 55 55 54 54 53 53 51 49 48 48 49 50 51 51 50 48 45 41 36 32 29 26 23 20 17 14 12 11 11 11 10 9 8 8 8 8
42 43 45 48 49 51 52 52 52 51 50 50 48 47 46 47 47 48 47 45 44 42 40 35 31 27 24 22 18 14 12 11 10 10 9 9 8 8 7 7 7 7 7
41 43 45 47 48 48 49 49 49 47 46 45 45 45 45 45 44 41 38 37 37 36 32 28 25 22 20 16 13 11 10 10 10 9 9 9 8 8 7 8 8 8 8
39 40 42 44 45 46 46 45 44 43 43 43 43 43 41 39 35 32 31 32 31 27 24 21 20 17 14 11 10 10 10 10 11 11 11 10 10 10 10 11 11 12 12
38 40 42 43 42 41 41 41 42 42 42 41 40 37 34 29 27 27 29 29 24 20 17 15 13 11 10 9 9 10 11 12 13 12 12 12 13 14 14 13 12 11 9
38 38 39 39 39 40 41 41 41 40 38 36 32 29 27 26 26 27 27 23 17 14 11 9 8 7 7 8 10 12 13 14 14 14 14 15 15 13 11 11 9 9 8
35 36 37 38 39 40 40 39 36 34 31 27 25 25 26 26 26 26 23 17 11 8 5 4 5 6 7 9 11 13 14 14 14 15 16 14 13 13 14 14 14 14 14
35 36 37 38 37 36 34 32 29 26 24 24 25 25 25 24 22 21 16 11 6 3 2 3 4 6 9 11 12 13 14 14 15 16 15 15 15 16 16 16 16 16 16
36 36 36 34 32 29 27 25 24 24 24 24 24 23 21 19 17 14 10 5 2 1 2 3 5 7 10 12 12 13 13 15 16 16 16 17 17 17 17 17 17 17 17
35 33 30 28 25 23 22 22 23 22 21 20 19 18 16 14 11 7 4 2 3 4 4 4 6 8 11 12 12 13 13 15 16 17 18 18 18 17 17 18 18 17 17
28 25 23 22 22 21 21 21 19 17 16 15 14 13 11 9 5 1 3 5 6 7 6 6 7 9 11 12 12 12 13 15 17 19 19 19 18 17 17 17 17 17 17
21 20 20 20 20 19 17 16 14 12 12 11 10 8 7 5 4 5 7 9 9 8 7 8 9 10 11 11 12 13 14 16 18 20 21 21 21 20 19 18 17 17 16
20 20 19 18 16 15 13 11 10 9 9 9 8 7 6 7 8 10 11 11 11 10 9 9 10 11 12 12 13 14 16 18 19 20 22 23 23 23 23 22 21 20 20
20 19 18 15 13 11 9 8 8 8 8 8 8 9 10 11 12 13 13 13 13 12 11 11 11 12 13 14 15 16 17 18 19 19 21 22 24 25 25 25 25 24 24
19 18 16 13 11 9 8 7 7 7 7 9 10 11 13 14 15 15 14 14 14 13 12 12 13 14 14 15 16 17 17 18 18 18 18 19 21 22 22 23 24 24 25
20 18 15 13 10 9 8 8 8 9 10 11 12 14 15 16 16 16 15 15 14 13 12 13 14 15 15 16 17 18 18 17 16 16 16 16 17 19 19 19 20 20 21
22 19 16 14 12 11 10 10 10 11 11 12 14 16 17 16 16 15 15 14 13 12 12 13 14 14 15 16 17 18 18 18 17 16 16 16 16 17 18 18 18 18 19
24 21 18 16 14 13 13 12 13 13 14 15 16 17 17 16 15 14 13 13 12 12 12 12 13 14 14 14 16 17 18 18 18 17 17 17 18 18 19 19 18 18 19
27 25 22 19 18 17 17 16 15 15 16 16 16 17 16 15 14 13 12 12 11 11 11 11 12 13 13 13 14 16 17 17 17 17 17 17 17 17 17 17 17 17 17

GEFSGL_500_meanwind_018.txt.gz
Wind_Speed
41 40 39 38 38 40 41 43 47 50 52 54 57 59 62 64 66 67 68 67 65 64 65 65 65 64 64 64 65 66 68 69 69 68 70 72 72 72 70 68 65 61 58
43 42 40 39 41 43 44 46 49 52 54 57 60 62 64 66 67 67 66 65 64 64 65 64 63 62 62 64 65 66 68 70 70 69 67 65 62 60 57 53 50 47 43
43 41 40 41 43 45 47 49 51 54 56 59 61 64 65 66 66 64 63 63 63 63 62 61 61 62 62 63 65 66 66 66 65 62 56 51 46 44 41 38 36 34 32
41 41 43 45 46 48 49 51 53 56 58 60 62 63 63 63 62 61 62 62 61 60 60 60 61 61 62 62 63 62 60 57 53 48 42 37 34 32 30 27 26 26 26
44 45 47 48 49 50 51 53 54 57 59 60 60 60 59 60 60 61 61 60 59 59 59 59 60 60 60 59 57 53 49 44 38 33 29 26 25 24 23 21 20 21 22
47 46 47 48 49 50 51 53 54 56 57 57 57 57 58 58 59 59 59 58 57 57 57 57 57 56 53 50 46 43 37 31 26 23 21 21 20 19 19 18 17 17 18
47 46 47 47 48 49 51 52 53 54 54 55 56 56 57 57 56 56 56 56 56 55 54 53 50 47 43 39 34 30 26 23 21 19 18 18 18 18 17 17 16 15 15
47 46 46 46 47 49 50 50 51 52 52 53 54 54 54 54 54 54 54 54 53 51 48 45 41 38 32 27 23 21 20 20 19 19 19 18 18 18 17 17 16 16 15
45 45 45 46 47 48 48 48 49 49 50 51 51 51 51 52 52 51 51 50 47 44 40 36 32 26 21 18 17 17 18 19 20 20 20 20 20 20 20 19 18 17 16
43 43 44 45 46 46 46 47 47 48 48 49 49 49 49 49 49 47 45 42 38 36 32 30 24 17 15 15 15 16 18 19 20 21 21 21 20 20 19 18 17 16 16
42 43 43 43 44 44 45 45 46 46 47 47 47 47 47 45 42 39 35 32 30 29 27 24 17 13 13 14 16 17 19 19 20 20 19 18 16 16 16 16 15 14 13
41 41 41 41 42 42 43 44 44 45 45 45 44 42 39 36 32 29 28 27 26 24 21 16 12 11 12 14 16 17 18 19 19 17 16 15 15 16 17 17 16 15 13
38 38 38 39 40 41 42 43 43 42 41 39 37 34 31 28 26 25 25 24 21 18 13 9 8 9 12 14 15 16 17 17 16 15 15 16 16 17 18 18 18 18 17
35 36 37 38 40 40 40 40 39 36 34 31 29 28 27 25 25 24 22 18 14 10 6 4 5 8 11 12 13 15 15 14 14 15 15 16 17 18 18 18 19 19 19
35 36 37 38 38 37 35 33 31 29 27 27 26 25 24 22 21 19 16 11 6 3 1 1 5 8 10 11 12 13 13 14 15 15 15 17 18 19 19 19 19 19 19
34 35 34 33 32 30 28 27 26 25 25 24 22 21 19 18 16 13 8 3 4 4 3 3 6 8 9 10 12 12 13 14 15 15 15 16 17 18 19 20 20 20 20
31 30 29 27 26 25 23 23 22 21 19 18 17 15 14 11 8 3 3 7 8 6 5 5 7 8 9 11 12 14 16 17 17 18 18 19 20 21 22 22 22 21 21
27 26 24 23 22 20 19 17 16 14 13 12 12 11 8 4 3 7 10 11 9 7 6 7 8 9 10 12 14 16 18 20 21 21 21 22 23 25 26 27 26 25 24
22 21 20 18 16 15 13 11 9 9 8 8 8 7 6 7 10 12 13 11 9 8 8 8 9 11 12 14 16 18 20 22 23 24 24 25 26 27 29 30 30 30 29
19 17 15 13 11 9 8 6 5 5 5 6 7 8 10 12 14 14 13 11 10 9 9 10 11 12 14 16 17 19 20 21 22 23 24 25 27 28 30 31 31 31 31
17 14 11 9 8 6 6 5 5 6 8 9 11 13 14 15 15 14 13 12 11 11 11 11 12 13 14 16 17 18 19 20 21 22 23 24 25 27 28 29 31 31 30
14 12 10 8 8 7 8 9 10 11 12 14 15 16 16 15 15 14 13 13 12 13 13 12 12 13 14 15 15 16 16 17 18 20 21 22 24 25 27 28 28 29 29
15 13 11 11 11 12 13 13 14 15 16 17 17 17 16 15 15 14 14 13 13 13 13 13 13 13 14 14 14 14 15 16 17 18 20 21 22 24 25 26 26 27 28
17 16 15 15 15 16 16 17 17 17 18 18 18 17 16 15 14 13 13 13 13 13 13 13 13 13 13 13 12 13 14 15 16 17 18 20 21 22 23 24 24 25 25
22 21 20 19 18 18 19 19 19 19 18 18 17 16 15 14 13 12 12 12 12 13 13 13 13 13 13 12 12 12 13 14 16 17 18 19 19 20 21 21 21 22 22
25 24 23 21 20 19 19 19 18 18 17 17 16 15 14 13 12 11 10 10 11 11 12 12 12 12 13 12 13 13 14 14 15 15 16 17 18 18 18 18 19 19 20

GEFSGL_500_meanwind_024.txt.gz
Wind_Speed
37 38 39 40 40 40 40 41 41 41 42 42 43 45 46 48 50 52 53 55 56 58 58 59 59 59 59 59 59 59 59 61 60 61 63 63 61 59 56 53 51 48 46
38 39 40 41 42 42 43 44 45 45 46 45 46 48 50 51 53 54 56 56 57 58 58 58 58 58 58 57 57 58 60 61 62 60 58 55 52 48 44 42 40 38 36
39 40 42 43 44 45 47 48 48 49 49 49 50 51 52 54 55 56 56 57 57 58 57 57 57 56 56 57 58 59 60 60 58 54 49 45 42 38 36 34 33 32 31
43 44 45 45 47 49 50 51 52 51 51 51 52 53 54 55 56 56 56 56 56 56 56 55 55 55 56 57 58 59 57 54 50 44 39 36 34 34 33 32 31 30 29
45 46 46 48 50 51 53 53 52 52 53 53 54 55 56 56 56 56 55 55 55 55 55 55 55 55 57 57 56 54 51 46 40 35 33 32 32 33 34 33 31 30 29
46 47 48 50 51 52 52 52 52 52 53 54 55 55 55 55 55 55 55 54 54 54 54 54 55 56 55 53 50 47 42 37 33 30 30 31 32 33 32 32 31 30 28
46 48 50 51 51 51 51 52 53 53 53 54 54 54 54 54 54 54 54 53 53 52 53 54 54 52 49 45 42 38 35 31 29 30 31 32 31 30 30 29 29 28 27
47 49 50 50 51 51 51 52 52 52 52 53 53 54 53 53 53 53 52 52 51 52 52 51 48 45 40 37 33 31 29 29 29 30 30 29 28 26 26 25 24 24 24
48 49 49 49 50 50 50 50 51 51 51 52 52 52 51 50 50 50 50 50 50 50 48 44 40 36 32 28 25 25 25 26 28 27 26 24 23 22 22 22 22 22 22
46 47 47 48 48 49 49 50 50 49 49 49 49 49 48 48 48 49 48 47 46 44 41 37 33 28 24 21 20 20 22 23 23 22 21 21 21 21 20 21 21 20 20
45 46 47 47 48 48 47 47 46 46 46 46 46 46 46 46 46 44 42 40 38 35 33 29 25 20 16 16 17 18 19 19 17 17 18 19 20 20 20 19 19 19 19
44 44 44 43 43 43 43 43 43 43 44 44 44 44 43 42 40 37 35 32 30 28 25 21 17 13 12 14 16 16 16 15 15 16 17 18 19 19 19 19 19 19 18
40 39 39 39 39 40 40 41 41 42 42 41 40 39 37 35 33 30 27 25 23 20 16 12 9 8 10 12 13 13 12 13 14 15 17 18 19 19 19 19 19 18 18
35 36 37 37 38 38 38 38 38 38 37 36 34 33 31 29 27 24 21 19 16 11 8 5 5 6 9 10 10 10 11 12 13 15 17 18 18 18 18 17 17 17 16
34 34 35 36 35 35 35 34 33 32 31 30 28 27 25 23 21 18 16 12 7 4 2 1 2 5 6 7 8 9 11 12 14 16 17 18 18 18 17 17 17 18 17
32 33 33 32 31 30 29 28 27 25 24 22 21 20 18 17 14 11 8 5 4 4 3 2 3 4 6 8 10 11 13 14 16 18 19 19 20 20 20 20 21 22 21
30 29 28 27 25 24 23 21 19 17 16 15 14 12 11 9 5 2 5 8 8 7 5 4 6 7 10 11 13 14 15 17 19 20 21 22 23 23 23 23 24 25 25
25 24 22 21 19 17 15 13 12 11 10 8 7 6 3 2 6 10 12 11 9 7 7 8 9 11 13 14 15 16 17 19 21 23 24 25 26 26 26 25 25 26 26
20 18 16 14 12 10 8 7 6 5 5 4 4 5 7 10 13 14 13 11 9 9 9 11 13 14 15 15 16 17 18 20 22 24 25 27 27 28 28 27 27 27 27
14 12 10 7 6 4 4 3 3 4 5 6 8 11 13 15 15 14 12 11 10 11 12 14 15 15 16 17 17 18 19 20 22 24 25 27 28 29 29 29 29 28 27
11 9 7 6 5 5 5 6 7 8 10 11 13 14 15 15 15 13 12 12 12 13 14 15 15 16 16 17 18 18 19 20 21 23 24 26 27 28 29 29 29 28 27
12 10 9 9 9 9 10 11 12 12 13 14 15 16 16 15 15 14 13 13 13 14 15 15 15 15 16 16 17 18 19 19 20 21 22 24 25 26 27 28 28 28 28
14 13 12 12 12 13 14 14 15 15 15 16 16 16 15 15 15 14 14 14 14 14 15 15 14 14 14 15 16 17 17 18 19 19 20 21 22 23 24 25 25 25 26
16 15 15 15 15 16 16 16 16 16 16 15 15 15 15 14 14 14 14 14 14 14 14 14 13 13 13 14 14 15 16 16 17 18 18 19 20 21 22 22 22 22 23
17 16 16 16 16 16 16 16 16 16 15 14 14 13 13 13 13 12 12 13 13 13 13 13 12 12 12 12 13 13 14 15 16 16 17 18 19 19 20 20 20 20 20
16 15 15 15 15 15 15 15 14 14 13 12 12 11 11 11 11 11 11 12 12 13 13 12 12 12 11 11 11 12 13 14 15 15 16 17 17 18 19 19 19 20 20

GEFSGL_500_meanwind_030.txt.gz
Wind_Speed
38 39 40 42 43 44 45 46 47 47 47 47 47 46 46 46 46 47 48 49 50 51 53 54 56 58 59 59 60 61 61 62 62 62 65 66 66 65 64 61 58 54 51
38 40 42 43 45 46 48 49 50 51 51 51 50 50 50 50 50 51 52 53 54 54 56 57 57 58 58 58 58 59 61 62 63 62 62 62 61 58 56 53 50 47 44
41 42 44 46 47 49 51 52 53 53 53 53 53 53 53 53 53 54 55 55 56 57 57 57 57 57 57 57 58 59 60 61 61 61 58 56 53 50 48 46 43 42 41
44 45 47 49 50 52 53 54 54 54 54 54 54 54 54 55 55 56 57 57 57 57 57 56 56 56 56 57 57 58 59 59 58 55 52 48 45 43 42 40 39 38 37
47 49 51 52 53 54 55 55 55 55 55 54 54 55 55 55 56 57 57 57 56 56 55 55 55 55 55 55 56 56 56 54 52 48 43 39 38 38 37 36 35 34 33
50 51 52 53 53 53 53 53 53 53 54 54 55 56 56 56 56 56 56 56 56 55 54 54 54 53 53 53 53 52 50 48 43 38 35 35 35 34 33 32 32 31 29
51 51 51 51 50 50 50 50 51 53 54 55 55 55 55 55 55 55 55 55 53 53 52 52 51 51 49 49 48 47 43 39 35 33 33 33 31 31 30 30 29 29 29
45 45 45 46 46 46 47 48 50 51 52 52 53 53 54 54 54 54 53 52 51 50 49 48 47 46 45 44 41 38 34 32 31 32 31 30 30 30 30 29 29 28 28
40 40 42 44 45 45 46 47 49 50 50 51 52 52 52 51 51 50 49 48 47 46 45 44 42 41 39 36 32 29 27 28 29 29 29 29 30 31 30 29 28 27 25
40 42 43 44 45 45 46 47 48 48 49 49 49 49 48 48 48 47 46 45 44 42 40 38 35 33 31 27 24 22 23 24 25 26 28 29 29 29 29 28 27 25 24
41 42 43 44 44 45 45 46 46 46 46 46 46 46 46 45 44 44 43 41 39 37 34 31 28 24 21 19 18 18 19 20 22 23 24 25 26 27 27 26 25 23 22
41 42 42 42 42 43 43 43 44 44 44 44 44 43 43 42 41 40 39 36 32 30 26 23 19 16 13 12 13 15 17 18 19 20 22 23 25 26 26 25 24 22 21
39 39 40 40 40 41 41 41 41 42 42 41 41 40 39 38 36 34 31 27 24 21 17 14 11 8 7 9 11 13 14 15 17 19 20 22 23 24 25 24 23 22 22
37 37 38 38 39 39 39 39 39 39 38 37 36 35 33 31 29 26 23 20 17 14 10 7 5 4 5 7 9 10 12 14 16 18 19 21 22 23 24 24 23 23 23
36 37 37 37 37 36 36 35 34 33 31 30 28 27 25 23 21 18 15 12 10 7 4 1 0 2 4 6 8 10 13 14 16 18 19 20 21 22 23 23 23 23 24
35 34 34 33 32 31 29 28 27 25 23 22 20 19 17 15 12 9 6 3 3 4 4 4 4 4 5 7 9 11 13 14 16 17 19 19 20 21 22 22 23 23 24
29 29 28 27 26 24 22 20 18 17 15 14 13 12 10 7 4 1 4 7 8 8 7 7 7 8 8 9 10 12 13 15 16 17 18 19 20 21 21 22 22 23 23
24 22 20 19 18 16 14 12 10 9 10 10 9 8 6 5 7 9 11 11 11 9 9 10 11 11 11 11 12 13 14 16 17 18 19 19 20 20 21 21 21 22 22
18 15 14 13 11 10 8 8 7 6 6 6 6 7 8 10 12 12 12 12 11 12 12 13 13 13 13 13 13 14 14 15 17 18 19 19 20 21 21 21 20 20 20
15 13 12 11 10 9 8 8 8 7 7 7 8 10 11 12 12 12 12 13 14 15 15 15 14 13 13 13 13 13 14 15 16 17 18 19 20 20 21 21 21 20 19
15 13 13 12 12 11 11 10 10 10 10 10 11 12 13 13 13 14 15 16 16 16 16 15 14 13 13 13 12 12 13 14 15 16 17 18 19 19 20 20 21 21 20
15 14 14 14 13 13 13 13 13 13 13 13 13 14 14 14 14 15 16 16 16 16 15 14 14 13 12 12 11 12 12 13 14 15 16 17 18 19 20 20 20 20 20
14 14 14 14 14 14 14 14 14 14 14 14 15 15 15 15 15 15 15 15 15 14 13 12 12 11 11 11 11 11 12 13 14 15 16 17 18 19 20 20 21 21 21
14 14 14 14 14 14 14 14 14 14 14 14 14 15 15 15 14 14 13 13 13 12 11 10 10 10 10 10 10 11 12 13 14 15 17 17 18 19 21 22 23 24 23
12 12 12 13 13 13 13 13 13 13 13 13 13 13 13 13 12 12 12 11 10 9 9 9 8 8 8 9 10 11 12 13 15 16 17 18 19 21 23 24 25 25 26
10 11 11 11 11 11 11 11 11 11 11 10 10 11 11 11 10 10 10 9 8 8 8 7 7 7 8 9 10 11 12 13 15 17 18 19 20 22 23 24 25 25 26